Flag for Colombia Weather past 2 weeks in Barranquilla, Colombia

Now
77 °F

Thunderstorms. Broken clouds.


Feels Like: 78 °F
Forecast: N/A
Wind: 10 mph from Northwest

Location: Barranquilla / Ernestocortissoz

Current Time: Sep 22, 2014 at 3:40:41 PM

Latest Report: Sep 22, 2014 at 3:00 PM


Visibility: 5 mi

Pressure: 29.82 "Hg

Humidity: 100%

Dew point: 77 °F

Location of BarranquillaLocation

Historic Weather in Barranquilla — Graph

°F

Barranquilla temperature yesterday

Maximum temperature yesterday: 91 °F (at 12:00 PM)
Minimum temperature yesterday: 77 °F (at 1:00 AM)
Average temperature yesterday: 81 °F

Past Weeks' High & Low Weather Summary

 TemperatureHumidityPressure
High95 °F (Sep 9, 2:00 PM)100% (Sep 7, 11:00 PM)29.97 "Hg (Sep 7, 11:00 PM)
Low73 °F (Sep 15, 5:00 AM)59% (Sep 19, 2:00 PM)29.72 "Hg (Sep 7, 4:00 PM)
Average82 °F89%29.84 "Hg
* Reported Sep 7 2:00 PM — Sep 22 2:00 PM, Barranquilla, Weather by CustomWeather, © 2014

Note: Actual official high and low records may vary slightly from our data, if they occured in-between our weather recording intervals... More about our weather records

Advertising

Barranquilla weather history for previous 24 hours

 ConditionsComfort  
Time TempWeatherWind HumidityBarometerVisibility
2:00 PM
Sep 22
73 °FThunderstorms. Dense fog.16 mph100%29.85 "Hg1 mi
1:00 PM90 °FScattered showers. Broken clouds.7 mph75%29.81 "Hg5 mi
12:00 PM91 °FScattered clouds.3 mph71%29.86 "HgN/A
11:00 AM91 °FScattered clouds.No wind71%29.88 "HgN/A
10:00 AM86 °FPartly sunny.6 mph75%29.90 "HgN/A
9:00 AM84 °FPartly sunny.6 mph79%29.89 "HgN/A
8:00 AM81 °FFog.9 mph94%29.88 "Hg5 mi
7:00 AM79 °FFog.3 mph100%29.87 "Hg4 mi
6:00 AM79 °FFog.No wind94%29.86 "Hg2 mi
5:00 AM79 °FPassing clouds.6 mph94%29.85 "HgN/A
4:00 AM79 °FPartly cloudy.5 mph94%29.86 "HgN/A
3:00 AM79 °FPassing clouds.No wind94%29.84 "HgN/A
2:00 AM79 °FPassing clouds.7 mph94%29.85 "HgN/A
1:00 AM79 °FPartly cloudy.7 mph94%29.86 "HgN/A
12:00 AM79 °FPassing clouds.5 mph94%29.88 "HgN/A
11:00 PM
Sep 21
79 °FPassing clouds.No wind94%29.89 "Hg5 mi
10:00 PM79 °FThunderstorms. Passing clouds.8 mph89%29.90 "Hg5 mi
9:00 PM79 °FPassing clouds.5 mph100%29.91 "Hg4 mi
8:00 PM81 °FPassing clouds.5 mph94%29.87 "HgN/A
7:00 PM81 °FPassing clouds.5 mph89%29.85 "HgN/A
6:00 PM82 °FPassing clouds.3 mph84%29.86 "HgN/A
5:00 PM84 °FScattered clouds.8 mph79%29.85 "HgN/A
4:00 PM82 °FScattered clouds.7 mph84%29.85 "HgN/A
3:00 PM82 °FScattered clouds.7 mph79%29.84 "HgN/A
Weather by CustomWeather, © 2014

See weather overviewHow to use our weather pages